TimeCST,TemperatureF,Dew PointF,Humidity,Sea Level PressureIn,VisibilityMPH,Wind Direction,Wind SpeedMPH,Gust SpeedMPH,PrecipitationIn,Events,Conditions,WindDirDegrees,DateUTC
12:15 AM,30.2,1.4,29,30.07,10.0,SW,11.5,19.6,N/A,,Scattered Clouds,220,2014-01-25 06:15:00
12:35 AM,30.2,1.4,29,30.05,10.0,SSW,16.1,31.1,N/A,,Scattered Clouds,210,2014-01-25 06:35:00
12:55 AM,32.0,3.2,30,30.04,10.0,SW,18.4,26.5,N/A,,Mostly Cloudy,230,2014-01-25 06:55:00
1:15 AM,32.0,3.2,30,30.03,10.0,SW,18.4,24.2,N/A,,Overcast,220,2014-01-25 07:15:00
1:35 AM,33.8,3.2,28,30.02,10.0,SW,17.3,24.2,N/A,,Overcast,220,2014-01-25 07:35:00
1:55 AM,33.8,3.2,28,30.01,10.0,SW,17.3,24.2,N/A,,Overcast,230,2014-01-25 07:55:00
2:15 AM,33.8,5.0,30,30.00,10.0,SW,17.3,27.6,N/A,,Overcast,220,2014-01-25 08:15:00
2:35 AM,33.8,5.0,30,29.98,10.0,SW,12.7,26.5,N/A,,Overcast,220,2014-01-25 08:35:00
2:55 AM,32.0,5.0,32,29.98,10.0,SW,17.3,31.1,N/A,,Overcast,220,2014-01-25 08:55:00
3:15 AM,33.8,5.0,30,29.97,10.0,SW,17.3,28.8,N/A,,Overcast,220,2014-01-25 09:15:00
3:35 AM,33.8,6.8,32,29.96,10.0,SW,16.1,24.2,N/A,,Overcast,230,2014-01-25 09:35:00
3:55 AM,32.0,6.8,35,29.95,10.0,SW,15.0,20.7,N/A,,Overcast,220,2014-01-25 09:55:00
4:15 AM,32.0,6.8,35,29.93,10.0,SW,13.8,20.7,N/A,,Overcast,220,2014-01-25 10:15:00
4:35 AM,32.0,8.6,38,29.91,10.0,SW,13.8,21.9,N/A,,Overcast,220,2014-01-25 10:35:00
4:55 AM,33.8,6.8,32,29.91,10.0,SW,15.0,20.7,N/A,,Overcast,220,2014-01-25 10:55:00
5:15 AM,33.8,6.8,32,29.90,10.0,SW,16.1,24.2,N/A,,Overcast,220,2014-01-25 11:15:00
5:35 AM,33.8,6.8,32,29.90,10.0,SW,17.3,25.3,N/A,,Overcast,230,2014-01-25 11:35:00
5:55 AM,33.8,6.8,32,29.91,10.0,WSW,18.4,28.8,N/A,,Overcast,240,2014-01-25 11:55:00
6:15 AM,33.8,6.8,32,29.90,10.0,SW,19.6,27.6,N/A,,Overcast,230,2014-01-25 12:15:00
6:35 AM,33.8,8.6,35,29.90,10.0,SW,16.1,23.0,N/A,,Overcast,220,2014-01-25 12:35:00
6:55 AM,33.8,8.6,35,29.91,10.0,SW,16.1,23.0,N/A,,Overcast,230,2014-01-25 12:55:00
7:15 AM,33.8,8.6,35,29.92,10.0,SW,13.8,21.9,N/A,,Overcast,230,2014-01-25 13:15:00
7:35 AM,33.8,8.6,35,29.92,10.0,WSW,16.1,27.6,N/A,,Overcast,240,2014-01-25 13:35:00
7:55 AM,33.8,8.6,35,29.92,10.0,WSW,16.1,26.5,N/A,,Mostly Cloudy,240,2014-01-25 13:55:00
8:15 AM,33.8,8.6,35,29.92,10.0,WSW,17.3,24.2,N/A,,Clear,240,2014-01-25 14:15:00
8:35 AM,35.6,10.4,35,29.92,10.0,WSW,17.3,25.3,N/A,,Partly Cloudy,250,2014-01-25 14:35:00
8:55 AM,37.4,10.4,33,29.92,10.0,WSW,13.8,24.2,N/A,,Partly Cloudy,250,2014-01-25 14:55:00
9:15 AM,37.4,12.2,36,29.92,10.0,WSW,23.0,27.6,N/A,,Clear,250,2014-01-25 15:15:00
9:35 AM,39.2,12.2,33,29.94,10.0,West,13.8,25.3,N/A,,Clear,260,2014-01-25 15:35:00
9:55 AM,41.0,14.0,33,29.93,10.0,WSW,17.3,24.2,N/A,,Partly Cloudy,250,2014-01-25 15:55:00
10:15 AM,42.8,15.8,34,29.94,10.0,WSW,16.1,26.5,N/A,,Scattered Clouds,250,2014-01-25 16:15:00
10:35 AM,44.6,17.6,34,29.93,10.0,West,17.3,25.3,N/A,,Clear,260,2014-01-25 16:35:00
10:55 AM,46.4,17.6,32,29.93,10.0,West,16.1,25.3,N/A,,Clear,260,2014-01-25 16:55:00
11:15 AM,48.2,19.4,32,29.92,10.0,West,16.1,24.2,N/A,,Clear,270,2014-01-25 17:15:00
11:35 AM,48.2,21.2,34,29.92,10.0,West,16.1,26.5,N/A,,Clear,270,2014-01-25 17:35:00
11:55 AM,50.0,21.2,32,29.92,10.0,West,13.8,21.9,N/A,,Clear,270,2014-01-25 17:55:00
12:15 PM,51.8,24.8,35,29.92,10.0,WNW,12.7,17.3,N/A,,Clear,300,2014-01-25 18:15:00
12:35 PM,50.0,23.0,35,29.90,10.0,WNW,12.7,19.6,N/A,,Clear,290,2014-01-25 18:35:00
12:55 PM,50.0,21.2,32,29.90,10.0,WNW,12.7,17.3,N/A,,Clear,300,2014-01-25 18:55:00
1:15 PM,51.8,23.0,33,29.89,10.0,WNW,11.5,17.3,N/A,,Clear,290,2014-01-25 19:15:00
1:35 PM,51.8,21.2,30,29.89,10.0,West,11.5,16.1,N/A,,Clear,280,2014-01-25 19:35:00
1:55 PM,51.8,21.2,30,29.89,10.0,West,13.8,20.7,N/A,,Clear,270,2014-01-25 19:55:00
2:15 PM,51.8,21.2,30,29.89,10.0,West,15.0,21.9,N/A,,Clear,270,2014-01-25 20:15:00
2:35 PM,51.8,23.0,33,29.89,10.0,West,12.7,19.6,N/A,,Clear,260,2014-01-25 20:35:00
2:55 PM,51.8,23.0,33,29.89,10.0,West,15.0,19.6,N/A,,Partly Cloudy,270,2014-01-25 20:55:00
3:15 PM,51.8,23.0,33,29.90,10.0,WSW,12.7,-,N/A,,Partly Cloudy,250,2014-01-25 21:15:00
3:35 PM,50.0,21.2,32,29.91,10.0,West,11.5,-,N/A,,Partly Cloudy,260,2014-01-25 21:35:00
3:55 PM,50.0,23.0,35,29.92,10.0,West,11.5,16.1,N/A,,Mostly Cloudy,260,2014-01-25 21:55:00
4:15 PM,51.8,24.8,35,29.93,10.0,WNW,5.8,-,N/A,,Overcast,290,2014-01-25 22:15:00
4:35 PM,50.0,23.0,35,29.93,10.0,NNW,11.5,16.1,N/A,,Scattered Clouds,340,2014-01-25 22:35:00
4:55 PM,48.2,21.2,34,29.94,10.0,NW,6.9,-,N/A,,Partly Cloudy,320,2014-01-25 22:55:00
5:15 PM,48.2,21.2,34,29.94,10.0,NNW,4.6,-,N/A,,Partly Cloudy,330,2014-01-25 23:15:00
5:35 PM,48.2,21.2,34,29.96,10.0,NW,5.8,-,N/A,,Partly Cloudy,310,2014-01-25 23:35:00
5:55 PM,46.4,21.2,37,29.97,10.0,NW,9.2,-,N/A,,Clear,310,2014-01-25 23:55:00
6:15 PM,46.4,21.2,37,29.98,10.0,NW,8.1,-,N/A,,Partly Cloudy,310,2014-01-26 00:15:00
6:35 PM,44.6,19.4,37,29.99,10.0,NW,5.8,-,N/A,,Clear,310,2014-01-26 00:35:00
6:55 PM,44.6,19.4,37,29.99,10.0,NNW,8.1,-,N/A,,Clear,330,2014-01-26 00:55:00
7:15 PM,42.8,19.4,39,30.00,10.0,NW,5.8,-,N/A,,Clear,320,2014-01-26 01:15:00
7:35 PM,42.8,19.4,39,30.00,10.0,WNW,4.6,-,N/A,,Clear,300,2014-01-26 01:35:00
7:55 PM,41.0,19.4,42,30.00,10.0,WNW,4.6,-,N/A,,Clear,300,2014-01-26 01:55:00
8:15 PM,39.2,17.6,42,30.01,10.0,NNW,5.8,-,N/A,,Clear,340,2014-01-26 02:15:00
8:35 PM,37.4,17.6,45,30.01,10.0,NNW,5.8,-,N/A,,Clear,340,2014-01-26 02:35:00
8:55 PM,39.2,17.6,42,30.02,10.0,North,4.6,-,N/A,,Clear,350,2014-01-26 02:55:00
9:15 PM,37.4,15.8,41,30.02,10.0,NNE,6.9,-,N/A,,Clear,20,2014-01-26 03:15:00
9:35 PM,37.4,10.4,33,30.02,10.0,NNE,5.8,-,N/A,,Clear,30,2014-01-26 03:35:00
9:55 PM,37.4,6.8,28,30.02,10.0,Calm,Calm,-,N/A,,Clear,0,2014-01-26 03:55:00
10:15 PM,33.8,6.8,32,30.02,10.0,Calm,Calm,-,N/A,,Clear,0,2014-01-26 04:15:00
10:35 PM,35.6,6.8,30,30.03,10.0,ENE,3.5,-,N/A,,Clear,60,2014-01-26 04:35:00
10:55 PM,33.8,8.6,35,30.02,10.0,ENE,3.5,-,N/A,,Clear,70,2014-01-26 04:55:00
11:15 PM,33.8,8.6,35,30.02,10.0,East,3.5,-,N/A,,Mostly Cloudy,90,2014-01-26 05:15:00
11:35 PM,33.8,6.8,32,30.00,10.0,Calm,Calm,-,N/A,,Scattered Clouds,0,2014-01-26 05:35:00
11:55 PM,30.2,6.8,37,30.00,10.0,Calm,Calm,-,N/A,,Clear,0,2014-01-26 05:55:00